contact:dominique.lefevre@mio.osupytheas.fr, maurice.libes@osupytheas.fr, didier.mallarino@osupytheas.fr
Project:EMSO http://www.emso-fr.org/EMSO-France
Depth: 2436.0 m
Title:EMSO Ligure Ouest : Data MII capteur MICROCAT
DateTime_Computer,Latitude,Longitude,Temperature,Conductivity,Pressure,DateTime_Instrument
DateTime_Computer,Latitude,Longitude,degC,S m-1,dbar,DateTime_Instrument
2020-06-04T00:00:12Z,42.805,6.029,13.2971,4.59973,2469.984,2020-6-04T02:00:55Z
2020-06-04T00:03:15Z,42.805,6.029,13.2973,4.59971,2469.993,2020-6-04T02:03:59Z
2020-06-04T00:06:18Z,42.805,6.029,13.2973,4.59973,2470.007,2020-6-04T02:07:02Z
2020-06-04T00:09:21Z,42.805,6.029,13.2971,4.59970,2469.993,2020-6-04T02:10:05Z
2020-06-04T00:12:25Z,42.805,6.029,13.2974,4.59971,2469.97,2020-6-04T02:13:08Z
2020-06-04T00:15:28Z,42.805,6.029,13.2968,4.59971,2469.97,2020-6-04T02:16:11Z
2020-06-04T00:18:31Z,42.805,6.029,13.2965,4.59971,2469.993,2020-6-04T02:19:15Z
2020-06-04T00:21:34Z,42.805,6.029,13.2973,4.59971,2470.017,2020-6-04T02:22:18Z
2020-06-04T00:24:38Z,42.805,6.029,13.2973,4.59972,2469.984,2020-6-04T02:25:21Z
2020-06-04T00:27:41Z,42.805,6.029,13.2973,4.59971,2469.984,2020-6-04T02:28:25Z
2020-06-04T00:30:44Z,42.805,6.029,13.2968,4.59970,2470.007,2020-6-04T02:31:28Z
2020-06-04T00:33:47Z,42.805,6.029,13.2972,4.59971,2469.993,2020-6-04T02:34:31Z
2020-06-04T00:36:51Z,42.805,6.029,13.2971,4.59971,2469.984,2020-6-04T02:37:34Z
2020-06-04T00:39:54Z,42.805,6.029,13.2971,4.59970,2469.97,2020-6-04T02:40:38Z
2020-06-04T00:42:57Z,42.805,6.029,13.2970,4.59971,2469.993,2020-6-04T02:43:41Z
2020-06-04T00:46:00Z,42.805,6.029,13.2973,4.59972,2470.017,2020-6-04T02:46:44Z
2020-06-04T00:49:04Z,42.805,6.029,13.2972,4.59971,2470.017,2020-6-04T02:49:47Z
2020-06-04T00:52:07Z,42.805,6.029,13.2968,4.59971,2469.984,2020-6-04T02:52:50Z
2020-06-04T00:55:10Z,42.805,6.029,13.2974,4.59970,2469.993,2020-6-04T02:55:53Z
2020-06-04T00:58:13Z,42.805,6.029,13.2967,4.59970,2469.984,2020-6-04T02:58:57Z
2020-06-04T01:01:17Z,42.805,6.029,13.2968,4.59970,2470.007,2020-6-04T03:02:00Z
2020-06-04T01:04:20Z,42.805,6.029,13.2972,4.59970,2470.03,2020-6-04T03:05:03Z
2020-06-04T01:07:23Z,42.805,6.029,13.2973,4.59970,2469.993,2020-6-04T03:08:07Z
2020-06-04T01:10:26Z,42.805,6.029,13.2968,4.59970,2470.017,2020-6-04T03:11:10Z
2020-06-04T01:13:30Z,42.805,6.029,13.2968,4.59970,2469.993,2020-6-04T03:14:13Z
2020-06-04T01:16:33Z,42.805,6.029,13.2974,4.59970,2469.993,2020-6-04T03:17:16Z
2020-06-04T01:19:36Z,42.805,6.029,13.2971,4.59970,2470.04,2020-6-04T03:20:19Z
2020-06-04T01:22:39Z,42.805,6.029,13.2974,4.59970,2469.993,2020-6-04T03:23:23Z
2020-06-04T01:25:42Z,42.805,6.029,13.2969,4.59970,2469.993,2020-6-04T03:26:26Z
2020-06-04T01:28:46Z,42.805,6.029,13.2967,4.59970,2470.03,2020-6-04T03:29:29Z
2020-06-04T01:31:49Z,42.805,6.029,13.2968,4.59970,2470.007,2020-6-04T03:32:32Z
2020-06-04T01:34:52Z,42.805,6.029,13.2970,4.59970,2470.03,2020-6-04T03:35:36Z
2020-06-04T01:37:55Z,42.805,6.029,13.2968,4.59971,2470.003,2020-6-04T03:38:39Z
2020-06-04T01:40:59Z,42.805,6.029,13.2969,4.59970,2470.007,2020-6-04T03:41:42Z
2020-06-04T01:44:02Z,42.805,6.029,13.2968,4.59970,2469.993,2020-6-04T03:44:46Z
2020-06-04T01:47:05Z,42.805,6.029,13.2972,4.59969,2470.017,2020-6-04T03:47:49Z
2020-06-04T01:50:08Z,42.805,6.029,13.2971,4.59970,2470.053,2020-6-04T03:50:52Z
2020-06-04T01:53:12Z,42.805,6.029,13.2968,4.59970,2470.017,2020-6-04T03:53:55Z
2020-06-04T01:56:15Z,42.805,6.029,13.2968,4.59970,2470.017,2020-6-04T03:56:58Z
2020-06-04T01:59:18Z,42.805,6.029,13.2968,4.59971,2470.053,2020-6-04T04:00:02Z
2020-06-04T02:02:21Z,42.805,6.029,13.2968,4.59969,2470.04,2020-6-04T04:03:05Z
2020-06-04T02:05:25Z,42.805,6.029,13.2971,4.59971,2470.04,2020-6-04T04:06:08Z
2020-06-04T02:08:28Z,42.805,6.029,13.2970,4.59970,2470.017,2020-6-04T04:09:11Z
2020-06-04T02:11:31Z,42.805,6.029,13.2967,4.59971,2470.017,2020-6-04T04:12:14Z
2020-06-04T02:14:34Z,42.805,6.029,13.2971,4.59970,2470.04,2020-6-04T04:15:18Z
2020-06-04T02:17:37Z,42.805,6.029,13.2973,4.59971,2470.017,2020-6-04T04:18:21Z
2020-06-04T02:20:41Z,42.805,6.029,13.2970,4.59971,2470.053,2020-6-04T04:21:24Z
2020-06-04T02:23:44Z,42.805,6.029,13.2967,4.59970,2470.053,2020-6-04T04:24:27Z
2020-06-04T02:26:47Z,42.805,6.029,13.2969,4.59971,2470.063,2020-6-04T04:27:31Z
2020-06-04T02:29:51Z,42.805,6.029,13.2968,4.59973,2470.007,2020-6-04T04:30:34Z
2020-06-04T02:32:54Z,42.805,6.029,13.2967,4.59971,2470.04,2020-6-04T04:33:37Z
2020-06-04T02:35:57Z,42.805,6.029,13.2967,4.59970,2470.053,2020-6-04T04:36:41Z
2020-06-04T02:39:00Z,42.805,6.029,13.2972,4.59971,2470.053,2020-6-04T04:39:44Z
2020-06-04T02:42:04Z,42.805,6.029,13.2970,4.59971,2470.077,2020-6-04T04:42:47Z
2020-06-04T02:45:07Z,42.805,6.029,13.2967,4.59970,2470.04,2020-6-04T04:45:50Z
2020-06-04T02:48:10Z,42.805,6.029,13.2971,4.59970,2470.04,2020-6-04T04:48:54Z
2020-06-04T02:51:13Z,42.805,6.029,13.2971,4.59971,2470.04,2020-6-04T04:51:57Z
2020-06-04T02:54:17Z,42.805,6.029,13.2967,4.59970,2470.063,2020-6-04T04:55:00Z
2020-06-04T02:57:20Z,42.805,6.029,13.2974,4.59971,2470.053,2020-6-04T04:58:03Z
2020-06-04T03:00:23Z,42.805,6.029,13.2968,4.59971,2470.087,2020-6-04T05:01:06Z
2020-06-04T03:03:26Z,42.805,6.029,13.2972,4.59971,2470.087,2020-6-04T05:04:10Z
2020-06-04T03:06:29Z,42.805,6.029,13.2970,4.59970,2470.063,2020-6-04T05:07:13Z
2020-06-04T03:09:33Z,42.805,6.029,13.2971,4.59971,2470.077,2020-6-04T05:10:16Z
2020-06-04T03:12:36Z,42.805,6.029,13.2971,4.59973,2470.063,2020-6-04T05:13:19Z
2020-06-04T03:15:39Z,42.805,6.029,13.2971,4.59971,2470.063,2020-6-04T05:16:23Z
2020-06-04T03:18:42Z,42.805,6.029,13.2971,4.59972,2470.11,2020-6-04T05:19:26Z
2020-06-04T03:21:46Z,42.805,6.029,13.2967,4.59971,2470.087,2020-6-04T05:22:29Z
2020-06-04T03:24:49Z,42.805,6.029,13.2971,4.59971,2470.11,2020-6-04T05:25:32Z
2020-06-04T03:27:52Z,42.805,6.029,13.2967,4.59972,2470.124,2020-6-04T05:28:35Z
2020-06-04T03:30:55Z,42.805,6.029,13.2971,4.59971,2470.11,2020-6-04T05:31:39Z
2020-06-04T03:33:59Z,42.805,6.029,13.2972,4.59971,2470.124,2020-6-04T05:34:42Z
2020-06-04T03:37:02Z,42.805,6.029,13.2976,4.59971,2470.11,2020-6-04T05:37:45Z
2020-06-04T03:40:05Z,42.805,6.029,13.2970,4.59972,2470.1,2020-6-04T05:40:49Z
2020-06-04T03:43:08Z,42.805,6.029,13.2967,4.59971,2470.11,2020-6-04T05:43:52Z
2020-06-04T03:46:12Z,42.805,6.029,13.2971,4.59971,2470.11,2020-6-04T05:46:55Z
2020-06-04T03:49:15Z,42.805,6.029,13.2970,4.59972,2470.124,2020-6-04T05:49:58Z
2020-06-04T03:52:18Z,42.805,6.029,13.2967,4.59971,2470.087,2020-6-04T05:53:02Z
2020-06-04T03:55:21Z,42.805,6.029,13.2964,4.59972,2470.11,2020-6-04T05:56:05Z
2020-06-04T03:58:25Z,42.805,6.029,13.2971,4.59971,2470.147,2020-6-04T05:59:08Z
2020-06-04T04:01:28Z,42.805,6.029,13.2967,4.59972,2470.133,2020-6-04T06:02:12Z
2020-06-04T04:04:31Z,42.805,6.029,13.2970,4.59972,2470.133,2020-6-04T06:05:15Z
2020-06-04T04:07:35Z,42.805,6.029,13.2971,4.59970,2470.133,2020-6-04T06:08:18Z
2020-06-04T04:10:38Z,42.805,6.029,13.2970,4.59971,2470.133,2020-6-04T06:11:21Z
2020-06-04T04:13:41Z,42.805,6.029,13.2970,4.59971,2470.124,2020-6-04T06:14:24Z
2020-06-04T04:16:44Z,42.805,6.029,13.2973,4.59971,2470.133,2020-6-04T06:17:28Z
2020-06-04T04:19:48Z,42.805,6.029,13.2972,4.59971,2470.133,2020-6-04T06:20:31Z
2020-06-04T04:22:51Z,42.805,6.029,13.2972,4.59971,2470.147,2020-6-04T06:23:34Z
2020-06-04T04:25:54Z,42.805,6.029,13.2975,4.59971,2470.133,2020-6-04T06:26:37Z
2020-06-04T04:28:57Z,42.805,6.029,13.2972,4.59971,2470.11,2020-6-04T06:29:41Z
2020-06-04T04:32:01Z,42.805,6.029,13.2971,4.59972,2470.156,2020-6-04T06:32:44Z
2020-06-04T04:35:04Z,42.805,6.029,13.2971,4.59971,2470.156,2020-6-04T06:35:47Z
2020-06-04T04:38:07Z,42.805,6.029,13.2971,4.59972,2470.156,2020-6-04T06:38:50Z
2020-06-04T04:41:10Z,42.805,6.029,13.2968,4.59971,2470.171,2020-6-04T06:41:54Z
2020-06-04T04:44:13Z,42.805,6.029,13.2974,4.59971,2470.18,2020-6-04T06:44:57Z
2020-06-04T04:47:17Z,42.805,6.029,13.2972,4.59971,2470.171,2020-6-04T06:48:00Z
2020-06-04T04:50:20Z,42.805,6.029,13.2975,4.59971,2470.171,2020-6-04T06:51:03Z
2020-06-04T04:53:23Z,42.805,6.029,13.2968,4.59973,2470.156,2020-6-04T06:54:07Z
2020-06-04T04:56:26Z,42.805,6.029,13.2970,4.59971,2470.156,2020-6-04T06:57:10Z
2020-06-04T04:59:29Z,42.805,6.029,13.2972,4.59971,2470.156,2020-6-04T07:00:13Z
2020-06-04T05:02:33Z,42.805,6.029,13.2974,4.59971,2470.194,2020-6-04T07:03:16Z
2020-06-04T05:05:36Z,42.805,6.029,13.2971,4.59971,2470.156,2020-6-04T07:06:19Z
2020-06-04T05:08:39Z,42.805,6.029,13.2972,4.59971,2470.194,2020-6-04T07:09:23Z
2020-06-04T05:11:42Z,42.805,6.029,13.2970,4.59971,2470.18,2020-6-04T07:12:26Z
2020-06-04T05:14:46Z,42.805,6.029,13.2970,4.59971,2470.171,2020-6-04T07:15:29Z
2020-06-04T05:17:49Z,42.805,6.029,13.2973,4.59970,2470.171,2020-6-04T07:18:32Z
2020-06-04T05:20:52Z,42.805,6.029,13.2968,4.59971,2470.156,2020-6-04T07:21:36Z
2020-06-04T05:23:55Z,42.805,6.029,13.2967,4.59971,2470.194,2020-6-04T07:24:39Z
2020-06-04T05:26:59Z,42.805,6.029,13.2971,4.59971,2470.171,2020-6-04T07:27:42Z
2020-06-04T05:30:02Z,42.805,6.029,13.2970,4.59971,2470.156,2020-6-04T07:30:45Z
2020-06-04T05:33:05Z,42.805,6.029,13.2970,4.59971,2470.194,2020-6-04T07:33:49Z
2020-06-04T05:36:09Z,42.805,6.029,13.2968,4.59971,2470.18,2020-6-04T07:36:52Z
2020-06-04T05:39:12Z,42.805,6.029,13.2976,4.59971,2470.147,2020-6-04T07:39:55Z
2020-06-04T05:42:15Z,42.805,6.029,13.2968,4.59971,2470.156,2020-6-04T07:42:59Z
2020-06-04T05:45:18Z,42.805,6.029,13.2973,4.59971,2470.171,2020-6-04T07:46:02Z
2020-06-04T05:48:21Z,42.805,6.029,13.2971,4.59972,2470.156,2020-6-04T07:49:05Z
2020-06-04T05:51:25Z,42.805,6.029,13.2968,4.59971,2470.18,2020-6-04T07:52:08Z
2020-06-04T05:54:28Z,42.805,6.029,13.2971,4.59971,2470.147,2020-6-04T07:55:11Z
2020-06-04T05:57:31Z,42.805,6.029,13.2969,4.59971,2470.133,2020-6-04T07:58:15Z
2020-06-04T06:00:34Z,42.805,6.029,13.2969,4.59972,2470.171,2020-6-04T08:01:18Z
2020-06-04T06:03:38Z,42.805,6.029,13.2970,4.59971,2470.171,2020-6-04T08:04:21Z
2020-06-04T06:06:41Z,42.805,6.029,13.2973,4.59972,2470.18,2020-6-04T08:07:25Z
2020-06-04T06:09:44Z,42.805,6.029,13.2971,4.59972,2470.133,2020-6-04T08:10:28Z
2020-06-04T06:12:47Z,42.805,6.029,13.2968,4.59971,2470.171,2020-6-04T08:13:31Z
2020-06-04T06:15:51Z,42.805,6.029,13.2970,4.59971,2470.18,2020-6-04T08:16:34Z
2020-06-04T06:18:54Z,42.805,6.029,13.2974,4.59971,2470.171,2020-6-04T08:19:37Z
2020-06-04T06:21:57Z,42.805,6.029,13.2974,4.59971,2470.147,2020-6-04T08:22:41Z
2020-06-04T06:25:00Z,42.805,6.029,13.2971,4.59971,2470.156,2020-6-04T08:25:44Z
2020-06-04T06:28:04Z,42.805,6.029,13.2971,4.59971,2470.194,2020-6-04T08:28:47Z
2020-06-04T06:31:07Z,42.805,6.029,13.2971,4.59970,2470.156,2020-6-04T08:31:50Z
2020-06-04T06:34:10Z,42.805,6.029,13.2971,4.59972,2470.133,2020-6-04T08:34:54Z
2020-06-04T06:37:13Z,42.805,6.029,13.2967,4.59971,2470.133,2020-6-04T08:37:57Z
2020-06-04T06:40:16Z,42.805,6.029,13.2973,4.59971,2470.156,2020-6-04T08:41:00Z
2020-06-04T06:43:20Z,42.805,6.029,13.2974,4.59971,2470.171,2020-6-04T08:44:03Z
2020-06-04T06:46:23Z,42.805,6.029,13.2972,4.59972,2470.147,2020-6-04T08:47:06Z
2020-06-04T06:49:26Z,42.805,6.029,13.2968,4.59971,2470.156,2020-6-04T08:50:10Z
2020-06-04T06:52:29Z,42.805,6.029,13.2967,4.59971,2470.156,2020-6-04T08:53:13Z
2020-06-04T06:55:33Z,42.805,6.029,13.2972,4.59971,2470.133,2020-6-04T08:56:16Z
2020-06-04T06:58:36Z,42.805,6.029,13.2973,4.59971,2470.171,2020-6-04T08:59:19Z
2020-06-04T07:01:39Z,42.805,6.029,13.2968,4.59972,2470.133,2020-6-04T09:02:22Z
2020-06-04T07:04:42Z,42.805,6.029,13.2971,4.59971,2470.133,2020-6-04T09:05:26Z
2020-06-04T07:07:45Z,42.805,6.029,13.2971,4.59971,2470.171,2020-6-04T09:08:29Z
2020-06-04T07:10:49Z,42.805,6.029,13.2969,4.59971,2470.11,2020-6-04T09:11:32Z
2020-06-04T07:13:52Z,42.805,6.029,13.2970,4.59971,2470.147,2020-6-04T09:14:35Z
2020-06-04T07:16:55Z,42.805,6.029,13.2969,4.59971,2470.133,2020-6-04T09:17:39Z
2020-06-04T07:19:58Z,42.805,6.029,13.2971,4.59971,2470.171,2020-6-04T09:20:42Z
2020-06-04T07:23:02Z,42.805,6.029,13.2973,4.59971,2470.133,2020-6-04T09:23:45Z
2020-06-04T07:26:05Z,42.805,6.029,13.2967,4.59971,2470.147,2020-6-04T09:26:48Z
2020-06-04T07:29:08Z,42.805,6.029,13.2972,4.59971,2470.11,2020-6-04T09:29:51Z
2020-06-04T07:32:11Z,42.805,6.029,13.2970,4.59971,2470.11,2020-6-04T09:32:55Z
2020-06-04T07:35:14Z,42.805,6.029,13.2969,4.59971,2470.124,2020-6-04T09:35:58Z
2020-06-04T07:38:18Z,42.805,6.029,13.2968,4.59971,2470.096,2020-6-04T09:39:01Z
2020-06-04T07:41:21Z,42.805,6.029,13.2967,4.59971,2470.124,2020-6-04T09:42:04Z
2020-06-04T07:44:24Z,42.805,6.029,13.2968,4.59971,2470.11,2020-6-04T09:45:08Z
2020-06-04T07:47:27Z,42.805,6.029,13.2971,4.59971,2470.087,2020-6-04T09:48:11Z
2020-06-04T07:50:31Z,42.805,6.029,13.2971,4.59971,2470.087,2020-6-04T09:51:14Z
2020-06-04T07:53:34Z,42.805,6.029,13.2969,4.59971,2470.124,2020-6-04T09:54:17Z
2020-06-04T07:56:37Z,42.805,6.029,13.2968,4.59971,2470.147,2020-6-04T09:57:20Z
2020-06-04T07:59:40Z,42.805,6.029,13.2973,4.59971,2470.11,2020-6-04T10:00:24Z
2020-06-04T08:02:43Z,42.805,6.029,13.2967,4.59971,2470.133,2020-6-04T10:03:27Z
2020-06-04T08:05:47Z,42.805,6.029,13.2974,4.59971,2470.1,2020-6-04T10:06:30Z
2020-06-04T08:08:50Z,42.805,6.029,13.2971,4.59971,2470.133,2020-6-04T10:09:34Z
2020-06-04T08:11:53Z,42.805,6.029,13.2971,4.59971,2470.096,2020-6-04T10:12:37Z
2020-06-04T08:14:56Z,42.805,6.029,13.2970,4.59971,2470.087,2020-6-04T10:15:40Z
2020-06-04T08:18:00Z,42.805,6.029,13.2973,4.59970,2470.124,2020-6-04T10:18:43Z
2020-06-04T08:21:03Z,42.805,6.029,13.2971,4.59970,2470.087,2020-6-04T10:21:46Z
2020-06-04T08:24:06Z,42.805,6.029,13.2966,4.59971,2470.087,2020-6-04T10:24:50Z
2020-06-04T08:27:09Z,42.805,6.029,13.2971,4.59971,2470.11,2020-6-04T10:27:53Z
2020-06-04T08:30:13Z,42.805,6.029,13.2970,4.59971,2470.124,2020-6-04T10:30:56Z
2020-06-04T08:33:16Z,42.805,6.029,13.2969,4.59970,2470.063,2020-6-04T10:33:59Z
2020-06-04T08:36:19Z,42.805,6.029,13.2973,4.59970,2470.063,2020-6-04T10:37:03Z
2020-06-04T08:39:22Z,42.805,6.029,13.2972,4.59973,2470.087,2020-6-04T10:40:06Z
2020-06-04T08:42:26Z,42.805,6.029,13.2969,4.59973,2470.077,2020-6-04T10:43:09Z
2020-06-04T08:45:29Z,42.805,6.029,13.2971,4.59971,2470.063,2020-6-04T10:46:12Z
2020-06-04T08:48:32Z,42.805,6.029,13.2971,4.59971,2470.087,2020-6-04T10:49:16Z
2020-06-04T08:51:35Z,42.805,6.029,13.2971,4.59970,2470.077,2020-6-04T10:52:19Z
2020-06-04T08:54:39Z,42.805,6.029,13.2974,4.59971,2470.077,2020-6-04T10:55:22Z
2020-06-04T08:57:42Z,42.805,6.029,13.2973,4.59971,2470.1,2020-6-04T10:58:25Z
2020-06-04T09:00:45Z,42.805,6.029,13.2970,4.59971,2470.063,2020-6-04T11:01:29Z
2020-06-04T09:03:48Z,42.805,6.029,13.2971,4.59972,2470.04,2020-6-04T11:04:32Z
2020-06-04T09:06:51Z,42.805,6.029,13.2971,4.59971,2470.04,2020-6-04T11:07:35Z
2020-06-04T09:09:55Z,42.805,6.029,13.2973,4.59972,2470.063,2020-6-04T11:10:38Z
2020-06-04T09:12:58Z,42.805,6.029,13.2971,4.59970,2470.063,2020-6-04T11:13:41Z
2020-06-04T09:16:01Z,42.805,6.029,13.2971,4.59970,2470.04,2020-6-04T11:16:45Z
2020-06-04T09:19:04Z,42.805,6.029,13.2970,4.59970,2470.03,2020-6-04T11:19:48Z
2020-06-04T09:22:08Z,42.805,6.029,13.2968,4.59971,2470.04,2020-6-04T11:22:51Z
2020-06-04T09:25:11Z,42.805,6.029,13.2971,4.59971,2470.063,2020-6-04T11:25:54Z
2020-06-04T09:28:14Z,42.805,6.029,13.2968,4.59971,2469.993,2020-6-04T11:28:58Z
2020-06-04T09:31:17Z,42.805,6.029,13.2971,4.59971,2470.053,2020-6-04T11:32:01Z
2020-06-04T09:34:21Z,42.805,6.029,13.2969,4.59970,2470.017,2020-6-04T11:35:04Z
2020-06-04T09:37:24Z,42.805,6.029,13.2971,4.59970,2470.053,2020-6-04T11:38:07Z
2020-06-04T09:40:27Z,42.805,6.029,13.2970,4.59971,2470.017,2020-6-04T11:41:11Z
2020-06-04T09:43:31Z,42.805,6.029,13.2974,4.59970,2470.017,2020-6-04T11:44:14Z
2020-06-04T09:46:34Z,42.805,6.029,13.2970,4.59970,2470.053,2020-6-04T11:47:17Z
2020-06-04T09:49:37Z,42.805,6.029,13.2969,4.59971,2470.017,2020-6-04T11:50:21Z
2020-06-04T09:52:41Z,42.805,6.029,13.2968,4.59970,2470.053,2020-6-04T11:53:24Z
2020-06-04T09:55:44Z,42.805,6.029,13.2967,4.59970,2470.063,2020-6-04T11:56:27Z
2020-06-04T09:58:47Z,42.805,6.029,13.2973,4.59970,2469.993,2020-6-04T11:59:30Z
2020-06-04T10:01:50Z,42.805,6.029,13.2972,4.59970,2469.993,2020-6-04T12:02:34Z
2020-06-04T10:04:54Z,42.805,6.029,13.2969,4.59971,2470.03,2020-6-04T12:05:37Z
2020-06-04T10:07:57Z,42.805,6.029,13.2970,4.59971,2469.993,2020-6-04T12:08:40Z
2020-06-04T10:11:00Z,42.805,6.029,13.2971,4.59970,2470.017,2020-6-04T12:11:43Z
2020-06-04T10:14:03Z,42.805,6.029,13.2971,4.59971,2469.993,2020-6-04T12:14:47Z
2020-06-04T10:17:06Z,42.805,6.029,13.2970,4.59970,2470.017,2020-6-04T12:17:50Z
2020-06-04T10:20:10Z,42.805,6.029,13.2972,4.59970,2470.007,2020-6-04T12:20:53Z
2020-06-04T10:23:13Z,42.805,6.029,13.2973,4.59971,2470.04,2020-6-04T12:23:56Z
2020-06-04T10:26:16Z,42.805,6.029,13.2967,4.59971,2469.993,2020-6-04T12:27:00Z
2020-06-04T10:29:19Z,42.805,6.029,13.2969,4.59970,2470.017,2020-6-04T12:30:03Z
2020-06-04T10:32:23Z,42.805,6.029,13.2968,4.59970,2469.993,2020-6-04T12:33:06Z
2020-06-04T10:35:26Z,42.805,6.029,13.2970,4.59972,2469.993,2020-6-04T12:36:09Z
2020-06-04T10:38:29Z,42.805,6.029,13.2974,4.59971,2469.97,2020-6-04T12:39:13Z
2020-06-04T10:41:32Z,42.805,6.029,13.2972,4.59970,2470.007,2020-6-04T12:42:16Z
2020-06-04T10:44:35Z,42.805,6.029,13.2974,4.59969,2469.97,2020-6-04T12:45:19Z
2020-06-04T10:47:39Z,42.805,6.029,13.2967,4.59970,2469.947,2020-6-04T12:48:22Z
2020-06-04T10:50:42Z,42.805,6.029,13.2971,4.59969,2470.017,2020-6-04T12:51:25Z
2020-06-04T10:53:45Z,42.805,6.029,13.2969,4.59971,2469.984,2020-6-04T12:54:29Z
2020-06-04T10:56:48Z,42.805,6.029,13.2967,4.59969,2470.007,2020-6-04T12:57:32Z
2020-06-04T10:59:52Z,42.805,6.029,13.2974,4.59969,2469.984,2020-6-04T13:00:35Z
2020-06-04T11:02:55Z,42.805,6.029,13.2970,4.59969,2470.007,2020-6-04T13:03:38Z
2020-06-04T11:05:58Z,42.805,6.029,13.2970,4.59971,2469.984,2020-6-04T13:06:42Z
2020-06-04T11:09:01Z,42.805,6.029,13.2971,4.59969,2469.96,2020-6-04T13:09:45Z
2020-06-04T11:12:04Z,42.805,6.029,13.2969,4.59970,2469.97,2020-6-04T13:12:48Z
2020-06-04T11:15:08Z,42.805,6.029,13.2970,4.59969,2469.97,2020-6-04T13:15:51Z
2020-06-04T11:18:11Z,42.805,6.029,13.2971,4.59970,2469.993,2020-6-04T13:18:54Z
2020-06-04T11:21:14Z,42.805,6.029,13.2972,4.59970,2469.96,2020-6-04T13:21:58Z
2020-06-04T11:24:17Z,42.805,6.029,13.2969,4.59969,2469.993,2020-6-04T13:25:01Z
2020-06-04T11:27:21Z,42.805,6.029,13.2971,4.59970,2469.993,2020-6-04T13:28:04Z
2020-06-04T11:30:24Z,42.805,6.029,13.2972,4.59970,2469.947,2020-6-04T13:31:07Z
2020-06-04T11:33:27Z,42.805,6.029,13.2970,4.59970,2469.956,2020-6-04T13:34:11Z
2020-06-04T11:36:30Z,42.805,6.029,13.2969,4.59970,2469.886,2020-6-04T13:37:14Z
2020-06-04T11:39:34Z,42.805,6.029,13.2971,4.59970,2469.984,2020-6-04T13:40:17Z
2020-06-04T11:42:37Z,42.805,6.029,13.2968,4.59970,2469.923,2020-6-04T13:43:20Z
2020-06-04T11:45:40Z,42.805,6.029,13.2969,4.59971,2469.97,2020-6-04T13:46:24Z
2020-06-04T11:48:43Z,42.805,6.029,13.2969,4.59970,2469.984,2020-6-04T13:49:27Z
2020-06-04T11:51:47Z,42.805,6.029,13.2970,4.59970,2469.947,2020-6-04T13:52:30Z
2020-06-04T11:54:50Z,42.805,6.029,13.2967,4.59971,2469.947,2020-6-04T13:55:33Z
2020-06-04T11:57:53Z,42.805,6.029,13.2968,4.59971,2469.947,2020-6-04T13:58:37Z
2020-06-04T12:00:56Z,42.805,6.029,13.2967,4.59970,2469.97,2020-6-04T14:01:40Z
2020-06-04T12:03:59Z,42.805,6.029,13.2969,4.59970,2469.97,2020-6-04T14:04:43Z
2020-06-04T12:07:03Z,42.805,6.029,13.2971,4.59971,2469.947,2020-6-04T14:07:46Z
2020-06-04T12:10:06Z,42.805,6.029,13.2970,4.59970,2469.937,2020-6-04T14:10:49Z
2020-06-04T12:13:09Z,42.805,6.029,13.2972,4.59970,2469.937,2020-6-04T14:13:53Z
2020-06-04T12:16:12Z,42.805,6.029,13.2970,4.59971,2469.937,2020-6-04T14:16:56Z
2020-06-04T12:19:15Z,42.805,6.029,13.2971,4.59971,2469.923,2020-6-04T14:19:59Z
2020-06-04T12:22:19Z,42.805,6.029,13.2972,4.59971,2469.923,2020-6-04T14:23:02Z
2020-06-04T12:25:22Z,42.805,6.029,13.2971,4.59971,2469.923,2020-6-04T14:26:06Z
2020-06-04T12:28:26Z,42.805,6.029,13.2965,4.59970,2469.923,2020-6-04T14:29:09Z
2020-06-04T12:31:29Z,42.805,6.029,13.2968,4.59971,2469.947,2020-6-04T14:32:12Z
2020-06-04T12:34:32Z,42.805,6.029,13.2971,4.59971,2469.984,2020-6-04T14:35:16Z
2020-06-04T12:37:35Z,42.805,6.029,13.2973,4.59971,2469.97,2020-6-04T14:38:19Z
2020-06-04T12:40:39Z,42.805,6.029,13.2971,4.59972,2469.947,2020-6-04T14:41:22Z
2020-06-04T12:43:42Z,42.805,6.029,13.2971,4.59972,2469.97,2020-6-04T14:44:25Z
2020-06-04T12:46:45Z,42.805,6.029,13.2971,4.59971,2469.96,2020-6-04T14:47:29Z
2020-06-04T12:49:48Z,42.805,6.029,13.2974,4.59970,2469.947,2020-6-04T14:50:32Z
2020-06-04T12:52:52Z,42.805,6.029,13.2973,4.59971,2469.96,2020-6-04T14:53:35Z
2020-06-04T12:55:55Z,42.805,6.029,13.2971,4.59972,2469.97,2020-6-04T14:56:38Z
2020-06-04T12:58:58Z,42.805,6.029,13.2969,4.59971,2469.937,2020-6-04T14:59:41Z
2020-06-04T13:02:01Z,42.805,6.029,13.2974,4.59970,2469.937,2020-6-04T15:02:45Z
2020-06-04T13:05:05Z,42.805,6.029,13.2969,4.59971,2469.96,2020-6-04T15:05:48Z
2020-06-04T13:08:08Z,42.805,6.029,13.2971,4.59971,2469.984,2020-6-04T15:08:51Z
2020-06-04T13:11:11Z,42.805,6.029,13.2968,4.59970,2469.947,2020-6-04T15:11:54Z
2020-06-04T13:14:14Z,42.805,6.029,13.2972,4.59971,2469.923,2020-6-04T15:14:58Z
2020-06-04T13:17:17Z,42.805,6.029,13.2971,4.59970,2469.937,2020-6-04T15:18:01Z
2020-06-04T13:20:21Z,42.805,6.029,13.2973,4.59971,2469.97,2020-6-04T15:21:04Z
2020-06-04T13:23:24Z,42.805,6.029,13.2971,4.59970,2469.984,2020-6-04T15:24:07Z
2020-06-04T13:26:27Z,42.805,6.029,13.2972,4.59973,2469.923,2020-6-04T15:27:11Z
2020-06-04T13:29:30Z,42.805,6.029,13.2969,4.59971,2469.923,2020-6-04T15:30:14Z
2020-06-04T13:32:34Z,42.805,6.029,13.2970,4.59971,2470.007,2020-6-04T15:33:17Z
2020-06-04T13:35:37Z,42.805,6.029,13.2969,4.59972,2469.947,2020-6-04T15:36:20Z
2020-06-04T13:38:40Z,42.805,6.029,13.2971,4.59971,2469.97,2020-6-04T15:39:24Z
2020-06-04T13:41:43Z,42.805,6.029,13.2973,4.59971,2469.97,2020-6-04T15:42:27Z
2020-06-04T13:44:47Z,42.805,6.029,13.2970,4.59971,2469.97,2020-6-04T15:45:30Z
2020-06-04T13:47:50Z,42.805,6.029,13.2969,4.59971,2470.007,2020-6-04T15:48:33Z
2020-06-04T13:50:53Z,42.805,6.029,13.2972,4.59971,2469.96,2020-6-04T15:51:37Z
2020-06-04T13:53:56Z,42.805,6.029,13.2970,4.59970,2469.97,2020-6-04T15:54:40Z
2020-06-04T13:57:00Z,42.805,6.029,13.2972,4.59971,2469.96,2020-6-04T15:57:43Z
2020-06-04T14:00:03Z,42.805,6.029,13.2974,4.59971,2469.984,2020-6-04T16:00:46Z
2020-06-04T14:03:06Z,42.805,6.029,13.2973,4.59971,2469.993,2020-6-04T16:03:50Z
2020-06-04T14:06:09Z,42.805,6.029,13.2971,4.59970,2469.993,2020-6-04T16:06:53Z
2020-06-04T14:09:12Z,42.805,6.029,13.2969,4.59971,2470.007,2020-6-04T16:09:56Z
2020-06-04T14:12:16Z,42.805,6.029,13.2974,4.59971,2469.993,2020-6-04T16:12:59Z
2020-06-04T14:15:19Z,42.805,6.029,13.2973,4.59971,2469.993,2020-6-04T16:16:03Z
2020-06-04T14:18:22Z,42.805,6.029,13.2970,4.59971,2469.947,2020-6-04T16:19:06Z
2020-06-04T14:21:26Z,42.805,6.029,13.2971,4.59971,2470.007,2020-6-04T16:22:09Z
2020-06-04T14:24:29Z,42.805,6.029,13.2973,4.59971,2470.017,2020-6-04T16:25:12Z
2020-06-04T14:27:32Z,42.805,6.029,13.2971,4.59971,2469.993,2020-6-04T16:28:16Z
2020-06-04T14:30:35Z,42.805,6.029,13.2968,4.59971,2470.017,2020-6-04T16:31:19Z
2020-06-04T14:33:38Z,42.805,6.029,13.2970,4.59972,2470.017,2020-6-04T16:34:22Z
2020-06-04T14:36:42Z,42.805,6.029,13.2968,4.59971,2470.007,2020-6-04T16:37:25Z
2020-06-04T14:39:45Z,42.805,6.029,13.2976,4.59971,2469.979,2020-6-04T16:40:28Z
2020-06-04T14:42:48Z,42.805,6.029,13.2971,4.59971,2470.017,2020-6-04T16:43:32Z
2020-06-04T14:45:51Z,42.805,6.029,13.2968,4.59973,2470.017,2020-6-04T16:46:35Z
2020-06-04T14:48:55Z,42.805,6.029,13.2970,4.59972,2470.053,2020-6-04T16:49:38Z
2020-06-04T14:51:58Z,42.805,6.029,13.2970,4.59971,2470.017,2020-6-04T16:52:41Z
2020-06-04T14:55:01Z,42.805,6.029,13.2972,4.59971,2470.003,2020-6-04T16:55:45Z
2020-06-04T14:58:04Z,42.805,6.029,13.2970,4.59971,2470.03,2020-6-04T16:58:48Z
2020-06-04T15:01:07Z,42.805,6.029,13.2974,4.59971,2470.017,2020-6-04T17:01:51Z
2020-06-04T15:04:11Z,42.805,6.029,13.2972,4.59971,2470.017,2020-6-04T17:04:55Z
2020-06-04T15:07:14Z,42.805,6.029,13.2971,4.59971,2470.063,2020-6-04T17:07:58Z
2020-06-04T15:10:17Z,42.805,6.029,13.2968,4.59972,2470.063,2020-6-04T17:11:01Z